VA3XLC Weather Reports


time (UTC)temp
F
wind
direction
speed
knots
gust
knots
rain 1hr
in
rain 24hr
in
rain mn
in
humidity
%
barometer
mb
20260505124646 50 334 3.5 6.1 0.00 0.00 0.00 78 971.4
20260505124145 50 274 1.7 3.5 0.00 0.00 0.00 78 971.3
20260505123645 50 292 1.7 2.6 0.00 0.00 0.00 78 971.1
20260505122624 51 343 7.0 9.6 0.00 0.00 0.00 78 970.8
20260505122123 53 342 6.1 8.7 0.00 0.00 0.00 77 970.6
20260505121622 54 347 5.2 7.8 0.00 0.00 0.00 76 970.4
20260505121122 55 315 4.3 6.1 0.00 0.00 0.00 77 970.4
20260505120622 57 353 7.0 10.4 0.00 0.00 0.00 75 970.3
20260505120122 58 293 5.2 7.0 0.00 0.00 0.00 76 970.1
20260505115100 58 274 4.3 7.8 0.00 0.00 0.00 76 969.5
20260505114559 58 266 6.1 9.6 0.00 0.00 0.00 76 969.4
20260505114059 58 270 5.2 7.0 0.00 0.00 0.00 75 969.4
20260505113038 58 271 6.1 10.4 0.00 0.00 0.00 75 969.2
20260505112537 59 253 7.8 13.0 0.00 0.00 0.00 75 969.2
20260505111514 59 275 6.1 7.8 0.00 0.00 0.00 74 969.1
20260505101930 59 271 8.7 13.9 0.00 0.00 0.00 72 968.6
20260505101430 59 263 6.1 10.4 0.00 0.00 0.00 73 968.5
20260505100929 59 278 6.1 9.6 0.00 0.00 0.00 73 968.5
20260505095346 59 266 4.3 7.8 0.00 0.00 0.00 73 968.5
20260505094846 59 264 7.0 10.4 0.00 0.00 0.00 73 968.5
20260505094346 59 249 6.1 7.8 0.00 0.00 0.00 73 968.4
20260505093846 59 275 5.2 9.6 0.00 0.00 0.00 73 968.4
20260505093345 59 255 6.1 8.7 0.00 0.00 0.00 73 968.2
20260505092845 60 264 7.0 10.4 0.00 0.00 0.00 73 968.2
20260505092344 60 274 7.0 8.7 0.00 0.00 0.00 73 968.0
20260505091843 60 260 9.6 14.8 0.00 0.00 0.00 72 968.0
20260505091343 60 274 7.0 12.2 0.00 0.00 0.00 72 968.0
20260505090843 60 271 5.2 7.8 0.00 0.00 0.00 72 967.9
20260505090342 60 266 7.8 11.3 0.00 0.00 0.00 72 967.9
20260505085842 60 276 5.2 6.1 0.00 0.00 0.00 72 967.8
20260505085341 60 265 5.2 7.0 0.00 0.00 0.00 72 967.8
20260505084320 60 258 6.1 10.4 0.00 0.00 0.00 72 967.6
20260505083820 60 237 2.6 5.2 0.00 0.00 0.00 72 967.6
20260505083320 60 264 3.5 5.2 0.00 0.00 0.00 72 967.5
20260505082819 60 246 4.3 6.1 0.00 0.00 0.00 72 967.5
20260505082318 61 259 4.3 6.1 0.00 0.00 0.00 71 967.6
20260505081257 61 267 2.6 5.2 0.00 0.00 0.00 70 967.4
20260505080757 61 276 7.0 11.3 0.00 0.00 0.00 70 967.4
20260505080256 61 266 5.2 7.0 0.00 0.00 0.00 70 967.4
20260505075756 61 265 4.3 7.0 0.00 0.00 0.00 71 967.3
20260505074735 61 258 4.3 9.6 0.00 0.00 0.00 71 967.3
20260505072109 62 260 5.2 7.8 0.00 0.00 0.00 69 967.4
20260505071609 62 271 6.1 9.6 0.00 0.00 0.00 68 967.4
20260505071108 62 263 3.5 6.1 0.00 0.00 0.00 68 967.5
20260505070608 62 273 6.1 11.3 0.00 0.00 0.00 68 967.5
20260505070108 61 261 5.2 7.8 0.00 0.00 0.00 69 967.4
20260505065047 60 252 3.5 7.0 0.00 0.00 0.00 71 967.6
20260505064546 60 255 3.5 6.1 0.00 0.00 0.00 71 967.7
20260505064046 59 267 1.7 3.5 0.00 0.00 0.00 72 967.8
20260505063025 59 245 4.3 7.8 0.00 0.00 0.00 72 968.0
20260505062524 59 242 4.3 7.8 0.00 0.00 0.00 71 968.1
20260505062023 59 238 3.5 7.0 0.00 0.00 0.00 72 968.1
20260505061002 59 242 4.3 7.0 0.00 0.00 0.00 72 968.2
20260505055419 59 261 4.3 6.1 0.00 0.00 0.00 71 968.4
20260505054918 59 259 1.7 5.2 0.00 0.00 0.00 71 968.4
20260505054418 59 256 6.1 10.4 0.00 0.00 0.00 71 968.5
20260505053918 60 257 4.3 9.6 0.00 0.00 0.00 71 968.5
20260505053418 60 254 6.1 9.6 0.00 0.00 0.00 71 968.6
20260505052917 60 268 5.2 11.3 0.00 0.00 0.00 71 968.6
20260505052417 60 220 2.6 3.5 0.00 0.00 0.00 71 968.5
20260505051917 60 248 7.0 11.3 0.00 0.00 0.00 70 968.5
20260505051416 60 242 4.3 6.1 0.00 0.00 0.00 70 968.6
20260505050354 60 224 3.5 6.1 0.00 0.00 0.00 71 968.6
20260505040749 62 264 7.0 12.2 0.00 0.00 0.00 68 968.5
20260505040246 62 251 6.1 9.6 0.00 0.00 0.00 68 968.5
20260505035746 61 267 5.2 7.0 0.00 0.00 0.00 69 968.5
20260505035246 61 256 4.3 7.0 0.00 0.00 0.00 70 968.6
20260505034746 61 250 3.5 5.2 0.00 0.00 0.00 70 968.6
20260505034246 61 241 3.5 6.1 0.00 0.00 0.00 70 968.6
20260505033745 61 256 6.1 9.6 0.00 0.00 0.00 69 968.6
20260505033245 61 258 6.1 11.3 0.00 0.00 0.00 69 968.7
20260505032744 62 261 5.2 8.7 0.00 0.00 0.00 69 968.8
20260505032244 62 260 5.2 10.4 0.00 0.00 0.00 68 968.8
20260505031744 62 253 5.2 8.7 0.00 0.00 0.00 67 969.0
20260505030722 63 251 7.0 10.4 0.00 0.00 0.00 65 969.1
20260505030222 62 254 6.1 9.6 0.00 0.00 0.00 66 969.2
20260505025722 62 266 6.1 10.4 0.00 0.00 0.00 68 969.2
20260505024700 61 265 7.8 10.4 0.00 0.00 0.00 71 969.0
20260505024159 60 262 4.3 8.7 0.00 0.00 0.00 73 969.1
20260505023658 60 267 7.8 12.2 0.00 0.00 0.00 75 969.2
20260505022636 61 259 2.6 5.2 0.00 0.00 0.00 77 969.6
20260505022136 61 282 6.1 8.7 0.00 0.00 0.00 73 969.6
20260505021113 62 262 8.7 11.3 0.00 0.00 0.00 69 969.3
20260505020613 62 257 6.1 10.4 0.00 0.00 0.00 69 969.2
20260505015552 62 265 7.0 11.3 0.00 0.00 0.00 65 969.0
20260505015050 62 265 8.7 11.3 0.00 0.00 0.00 66 968.9
20260505014550 62 253 2.6 5.2 0.00 0.00 0.00 66 968.8
20260505014050 61 256 4.3 10.4 0.00 0.00 0.00 67 968.5
20260505013550 61 227 3.5 7.0 0.00 0.00 0.00 67 968.2
20260505013049 61 238 3.5 7.8 0.00 0.00 0.00 67 968.3
20260505012549 61 236 2.6 5.2 0.00 0.00 0.00 67 968.2
20260505012048 61 209 2.6 6.1 0.00 0.00 0.00 67 968.2
20260505011548 62 205 3.5 6.1 0.00 0.00 0.00 66 968.2
20260505011047 62 199 2.6 6.1 0.00 0.00 0.00 66 968.2
20260505010547 62 222 3.5 7.8 0.00 0.00 0.00 65 968.1
20260505010047 63 226 2.6 5.2 0.00 0.00 0.00 64 968.1
20260505005547 63 225 3.5 5.2 0.00 0.00 0.00 63 968.1
20260505005046 63 263 2.6 7.0 0.00 0.00 0.00 61 968.1
20260505004546 64 217 2.6 5.2 0.00 0.00 0.00 60 968.0
20260505004046 64 253 1.7 3.5 0.00 0.00 0.00 59 968.0
20260505003545 65 228 1.7 3.5 0.00 0.00 0.00 57 968.1
20260505003045 65 235 3.5 6.1 0.00 0.00 0.00 56 968.1
20260505002544 66 212 1.7 3.5 0.00 0.00 0.00 55 968.1
20260505002044 66 229 1.7 3.5 0.00 0.00 0.00 54 968.1
20260505001543 66 247 3.5 7.0 0.00 0.00 0.00 54 968.0
20260505001043 67 233 2.6 4.3 0.00 0.00 0.00 53 968.1
20260505000542 67 260 6.1 9.6 0.00 0.00 0.00 52 968.1
20260505000042 67 206 1.7 3.5 0.00 0.00 0.00 52 968.2
20260504235541 68 223 3.5 6.1 0.00 0.00 0.00 51 968.1
20260504235041 68 247 2.6 5.2 0.00 0.00 0.00 50 968.1
20260504234020 68 265 5.2 8.7 0.00 0.00 0.00 49 968.1
20260504233519 69 236 4.3 7.0 0.00 0.00 0.00 47 968.1
20260504233019 69 257 4.3 7.8 0.00 0.00 0.00 47 968.2
20260504231958 69 247 6.1 9.6 0.00 0.00 0.00 46 968.2
20260504231457 69 249 8.7 12.2 0.00 0.00 0.00 46 968.3
20260504230956 69 229 2.6 7.0 0.00 0.00 0.00 46 968.4
20260504230456 69 258 8.7 13.0 0.00 0.00 0.00 45 968.4
20260504225956 69 246 3.5 6.1 0.00 0.00 0.00 45 968.6
20260504225456 69 268 4.3 8.7 0.00 0.00 0.00 45 968.6
20260504224956 69 249 6.1 12.2 0.00 0.00 0.00 44 968.7
20260504224455 69 257 7.0 13.0 0.00 0.00 0.00 44 968.7
20260504223955 69 265 4.3 7.8 0.00 0.00 0.00 43 968.7
20260504222933 69 259 7.0 16.5 0.00 0.00 0.00 42 968.9
20260504222433 69 257 6.1 10.4 0.00 0.00 0.00 41 968.9
20260504221933 69 244 2.6 7.0 0.00 0.00 0.00 41 969.0
20260504221432 69 225 4.3 11.3 0.00 0.00 0.00 39 969.0
20260504220932 69 250 6.1 11.3 0.00 0.00 0.00 38 969.1
20260504215909 69 249 5.2 11.3 0.00 0.00 0.00 37 969.1
20260504215409 69 247 7.0 12.2 0.00 0.00 0.00 36 969.0
20260504214909 70 270 6.1 13.9 0.00 0.00 0.00 36 969.1
20260504214408 69 245 4.3 9.6 0.00 0.00 0.00 36 969.0
20260504213908 69 258 8.7 12.2 0.00 0.00 0.00 36 969.0
20260504213408 69 261 9.6 13.0 0.00 0.00 0.00 36 969.0
20260504212908 70 260 9.6 15.6 0.00 0.00 0.00 36 969.0
20260504211846 70 257 7.0 14.8 0.00 0.00 0.00 37 968.9
20260504211346 70 240 6.1 12.2 0.00 0.00 0.00 37 968.9
20260504210846 70 257 5.2 9.6 0.00 0.00 0.00 37 968.9
20260504210346 70 257 7.8 11.3 0.00 0.00 0.00 38 968.9
20260504205846 70 253 8.7 19.1 0.00 0.00 0.00 38 968.9
20260504205345 70 247 3.5 9.6 0.00 0.00 0.00 39 968.9
20260504204844 70 239 5.2 7.0 0.00 0.00 0.00 39 969.0
20260504204344 70 264 7.0 10.4 0.00 0.00 0.00 40 968.9
20260504203844 70 259 6.1 9.6 0.00 0.00 0.00 41 969.0
20260504203344 70 255 6.1 9.6 0.00 0.00 0.00 42 969.0
20260504202844 70 253 5.2 11.3 0.00 0.00 0.00 41 969.0
20260504202343 69 252 5.2 10.4 0.00 0.00 0.00 43 969.1
20260504201842 69 257 7.8 13.0 0.00 0.00 0.00 43 969.1
20260504201341 69 252 7.8 13.0 0.00 0.00 0.00 44 969.2
20260504200840 69 250 7.8 16.5 0.00 0.00 0.00 44 969.3
20260504195818 69 256 4.3 10.4 0.00 0.00 0.00 45 969.2
20260504194756 68 258 5.2 10.4 0.00 0.00 0.00 45 969.2
20260504194257 68 257 6.1 10.4 0.00 0.00 0.00 45 969.4
20260504193756 68 260 6.1 10.4 0.00 0.00 0.00 45 969.5
20260504193256 68 253 6.1 9.6 0.00 0.00 0.00 46 969.6
20260504192756 67 233 4.3 7.0 0.00 0.00 0.00 47 969.7
20260504192255 67 254 7.0 11.3 0.00 0.00 0.00 47 969.8
20260504190712 67 241 4.3 7.8 0.00 0.00 0.00 48 970.0
20260504190212 67 238 5.2 9.6 0.00 0.00 0.00 48 969.9
20260504185151 67 214 5.2 7.8 0.00 0.00 0.00 48 970.0
20260504184649 67 241 3.5 8.7 0.00 0.00 0.00 49 970.1
20260504184149 67 240 4.3 8.7 0.00 0.00 0.00 49 970.2
20260504183649 67 249 5.2 8.7 0.00 0.00 0.00 50 970.2
20260504183148 67 216 5.2 9.6 0.00 0.00 0.00 50 970.2
20260504182648 67 256 5.2 7.8 0.00 0.00 0.00 50 970.2
20260504182148 66 246 6.1 9.6 0.00 0.00 0.00 51 970.2
20260504181127 67 258 6.1 10.4 0.00 0.00 0.00 49 970.4
20260504180626 66 264 5.2 8.7 0.00 0.00 0.00 50 970.4
20260504180125 65 235 2.6 5.2 0.00 0.00 0.00 52 970.5
20260504175625 65 237 6.1 10.4 0.00 0.00 0.00 52 970.6
20260504175125 65 262 4.3 6.1 0.00 0.00 0.00 54 970.6
20260504174625 64 260 7.0 11.3 0.00 0.00 0.00 55 970.7
20260504174124 64 236 5.2 8.7 0.00 0.00 0.00 56 970.8
20260504173623 65 250 5.2 9.6 0.00 0.00 0.00 55 970.9
20260504173123 65 229 3.5 7.0 0.00 0.00 0.00 54 970.8
20260504172623 65 226 2.6 4.3 0.00 0.00 0.00 55 970.9
20260504172123 65 263 6.1 8.7 0.00 0.00 0.00 54 970.9
20260504171623 65 257 5.2 10.4 0.00 0.00 0.00 54 971.0
20260504171122 65 212 3.5 6.1 0.00 0.00 0.00 55 971.0
20260504170622 65 252 7.0 11.3 0.00 0.00 0.00 55 971.0
20260504170122 65 257 6.1 11.3 0.00 0.00 0.00 55 971.0
20260504150930 62 218 2.6 4.3 0.00 0.00 0.00 57 972.1
20260504150430 62 248 5.2 10.4 0.00 0.00 0.00 56 972.1
20260504140906 58 269 6.1 10.4 0.00 0.00 0.00 60 972.4
20260504140406 58 251 4.3 5.2 0.00 0.00 0.00 61 972.5